[[{"header":{"parameterUnit":"m.s-1","parameterCategory":1,"la1":30.2992,"la2":30.254,"lo1":-89.0895,"lo2":-89.0443,"dy":0.0025,"dx":0.0025,"nx":19,"ny":19,"refTime":"2026-05-14T09:00:00:Z","depth":0,"parameterNumber":2,"parameterNumberName":"U-component_of_WINDS"},"data":[0,0,0,-0.8186,-0.8186,-0.8206,-0.8206,-0.8214,-0.8214,0,0,0,0,0,0,0,0,0,0,0,-0.817,-0.8169,-0.8186,-0.8186,-0.8206,-0.8206,-0.8214,-0.8214,0,0,0,0,0,0,0,0,0,0,0,-0.817,-0.817,-0.8169,-0.8186,-0.8206,-0.8206,-0.8214,-0.8206,0,0,0,0,0,0,0,0,0,0,-0.8189,-0.8164,-0.817,-0.8169,-0.8186,-0.8206,-0.8206,-0.8205,-0.8206,-0.8198,0,-0.8188,0,-0.8201,-0.8214,-0.8214,0,0,0,-0.8194,-0.8164,-0.8178,-0.8169,-0.8186,-0.8206,-0.8199,-0.8206,-0.8207,-0.8199,-0.8189,-0.8189,-0.8201,-0.8214,-0.8214,-0.8141,-0.8141,0,0,-0.8193,-0.8168,-0.8178,-0.8178,-0.8174,-0.8198,-0.82,-0.8207,-0.8194,-0.8189,-0.819,-0.8202,-0.8214,-0.8214,-0.8142,-0.8141,0,0,0,-0.8184,-0.8167,-0.8182,-0.8177,-0.8182,-0.8199,-0.82,-0.8194,-0.8201,-0.819,-0.8202,-0.8214,-0.8214,-0.8143,-0.8142,-0.8082,0,0,0,-0.8184,-0.8162,-0.8181,-0.8166,-0.8182,-0.8188,-0.8186,-0.82,-0.8202,-0.8202,-0.8214,-0.8213,-0.8144,-0.8142,-0.8085,-0.8057,0,0,0,-0.8172,-0.8161,-0.816,-0.8164,-0.8172,-0.8189,-0.8196,-0.8201,-0.8208,-0.8214,-0.8213,-0.8144,-0.8143,-0.8088,-0.8062,-0.803,0,0,0,-0.8152,-0.8107,-0.8159,-0.8113,-0.8171,-0.8152,-0.8196,-0.8183,-0.8181,-0.8214,-0.8144,-0.8142,-0.8089,-0.8065,-0.8033,-0.7997,-0.798,0,0,-0.8081,-0.8098,-0.8073,-0.812,-0.8084,-0.8151,-0.8107,-0.8128,-0.8152,-0.8144,-0.8142,-0.8084,-0.8063,-0.803,-0.7896,-0.7882,0,0,0,-0.8042,-0.8024,-0.802,-0.8016,-0.8032,-0.8042,-0.8074,-0.8082,-0.8075,-0.8143,-0.8065,-0.8053,-0.8035,-0.8019,-0.8007,-0.7993,-0.8134,-0.8134,-0.8134,-0.7906,-0.7938,-0.7899,-0.7933,-0.7929,-0.7962,-0.7961,-0.7978,-0.8012,-0.7993,-0.799,-0.7905,-0.7885,-0.7876,-0.7861,-0.7975,-0.7975,-0.7975,-0.7975,-0.7804,-0.7783,-0.7829,-0.7808,-0.7842,-0.7824,-0.7854,-0.7879,-0.7867,-0.791,-0.7896,-0.7939,-0.786,-0.7849,-0.7971,-0.7971,-0.7972,-0.7972,-0.7973,-0.7717,-0.7712,-0.7723,-0.7721,-0.7715,-0.7752,-0.7738,-0.7771,-0.7801,-0.7788,-0.7787,-0.7788,-0.7792,-0.7785,-0.7785,-0.7785,-0.7785,-0.7784,-0.7784,-0.7622,-0.7636,-0.762,-0.7632,-0.7634,-0.764,-0.7672,-0.7674,-0.7685,-0.771,-0.771,-0.7745,-0.7847,-0.7871,-0.778,-0.778,-0.7781,-0.7781,-0.7782,-0.7504,-0.7536,-0.7511,-0.7512,-0.7529,-0.7521,-0.7563,-0.7565,-0.7572,-0.7564,-0.7602,-0.7673,-0.7692,-0.7702,-0.7721,-0.7597,-0.7597,-0.7597,-0.7597,-0.7429,-0.7442,-0.7424,-0.7424,-0.7428,-0.7463,-0.7433,-0.7458,-0.7488,-0.7494,-0.7517,-0.7547,-0.7556,-0.757,-0.7582,-0.7601,-0.7448,-0.7448,-0.7448,-0.7358,-0.7373,-0.7341,-0.7371,-0.7386,-0.7398,-0.7371,-0.7369,-0.7411,-0.7442,-0.7499,-0.7505,-0.7554,-0.7568,-0.76,-0.7618,-0.7654,0,0]},{"header":{"parameterUnit":"m.s-1","parameterCategory":1,"la1":30.2992,"la2":30.254,"lo1":-89.0895,"lo2":-89.0443,"dy":0.0025,"dx":0.0025,"nx":19,"ny":19,"refTime":"2026-05-14T09:00:00:Z","depth":0,"parameterNumber":3,"parameterNumberName":"V-component_of_WINDS"},"data":[0,0,0,-3.482,-3.4821,-3.4879,-3.4879,-3.4953,-3.4953,0,0,0,0,0,0,0,0,0,0,0,-3.4804,-3.4805,-3.482,-3.4821,-3.4879,-3.4879,-3.4952,-3.4953,0,0,0,0,0,0,0,0,0,0,0,-3.4804,-3.4804,-3.4805,-3.4822,-3.4879,-3.4879,-3.4952,-3.4909,0,0,0,0,0,0,0,0,0,0,-3.4853,-3.4839,-3.4804,-3.4805,-3.4822,-3.4879,-3.4879,-3.4907,-3.4911,-3.4927,0,-3.4942,0,-3.4949,-3.4958,-3.4959,0,0,0,-3.482,-3.4835,-3.485,-3.4805,-3.4823,-3.4878,-3.4852,-3.4909,-3.4915,-3.4934,-3.4943,-3.4946,-3.495,-3.4959,-3.4959,-3.506,-3.506,0,0,-3.4817,-3.4814,-3.4846,-3.4854,-3.4846,-3.4851,-3.4854,-3.4913,-3.4922,-3.4943,-3.4948,-3.4952,-3.4959,-3.496,-3.5059,-3.506,0,0,0,-3.4809,-3.4812,-3.4826,-3.4851,-3.4861,-3.4852,-3.4856,-3.492,-3.4924,-3.4948,-3.4952,-3.496,-3.4961,-3.5059,-3.5059,-3.5085,0,0,0,-3.4807,-3.4807,-3.4824,-3.4823,-3.486,-3.4891,-3.4862,-3.492,-3.4927,-3.4952,-3.496,-3.4961,-3.5058,-3.5059,-3.5083,-3.5098,0,0,0,-3.48,-3.4806,-3.4815,-3.4823,-3.4848,-3.489,-3.4898,-3.4922,-3.493,-3.4959,-3.4962,-3.5058,-3.5059,-3.5082,-3.5095,-3.5126,0,0,0,-3.4791,-3.4834,-3.4815,-3.4865,-3.4847,-3.4906,-3.4898,-3.4941,-3.4969,-3.496,-3.5058,-3.5059,-3.5081,-3.5093,-3.5124,-3.5153,-3.5165,0,0,-3.4843,-3.484,-3.487,-3.4855,-3.4917,-3.4897,-3.4963,-3.4989,-3.4993,-3.5037,-3.504,-3.5084,-3.5095,-3.5126,-3.5226,-3.5235,0,0,0,-3.4886,-3.4907,-3.4924,-3.4953,-3.4976,-3.4998,-3.5016,-3.5027,-3.5065,-3.5016,-3.5103,-3.5109,-3.5127,-3.5142,-3.5149,-3.5167,-3.5065,-3.5065,-3.5065,-3.4955,-3.4961,-3.5012,-3.5027,-3.5054,-3.5074,-3.5098,-3.5115,-3.5109,-3.5131,-3.5144,-3.5204,-3.5221,-3.5227,-3.5245,-3.5158,-3.5158,-3.5158,-3.5158,-3.5034,-3.5067,-3.5065,-3.5113,-3.512,-3.516,-3.5182,-3.5178,-3.5217,-3.5194,-3.521,-3.5185,-3.5236,-3.5253,-3.516,-3.516,-3.516,-3.516,-3.5159,-3.5082,-3.5099,-3.5114,-3.5159,-3.5193,-3.5205,-3.5245,-3.5247,-3.525,-3.5266,-3.5283,-3.5283,-3.5285,-3.5274,-3.5274,-3.5275,-3.5275,-3.5275,-3.5275,-3.5126,-3.5142,-3.5176,-3.5208,-3.523,-3.5258,-3.5281,-3.5302,-3.5325,-3.5324,-3.5324,-3.532,-3.524,-3.5221,-3.5278,-3.5278,-3.5277,-3.5277,-3.5277,-3.5206,-3.519,-3.5242,-3.5264,-3.5305,-3.5341,-3.5346,-3.5388,-3.5405,-3.5425,-3.5418,-3.5358,-3.5354,-3.5348,-3.5332,-3.5415,-3.5415,-3.5415,-3.5415,-3.5248,-3.5247,-3.5304,-3.534,-3.5374,-3.5386,-3.5447,-3.5467,-3.5484,-3.5496,-3.5484,-3.5464,-3.5457,-3.5457,-3.5449,-3.5435,-3.5541,-3.5541,-3.5541,-3.5299,-3.5303,-3.5354,-3.5374,-3.5408,-3.5437,-3.5495,-3.5536,-3.5552,-3.5547,-3.5506,-3.5501,-3.5467,-3.5456,-3.5449,-3.5436,-3.541,0,0]}]]